DW3807 Weather Reports


time (UTC)temp
C
wind
direction
speed
KPH
gust
KPH
rain 1hr
cm
rain 24hr
cm
rain mn
cm
humidity
%
barometer
mb
20260507213018 12 319 4.8 14.5 0.00 0.00 0.00 49 1011.4
20260507212521 12 305 3.2 6.4 0.00 0.00 0.00 49 1011.4
20260507212018 12 308 4.8 16.1 0.00 0.00 0.00 49 1011.4
20260507211518 12 293 3.2 8.0 0.00 0.00 0.00 50 1011.5
20260507211020 12 310 3.2 9.7 0.00 0.00 0.00 49 1011.7
20260507210519 12 319 4.8 14.5 0.00 0.00 0.00 50 1011.7
20260507210021 12 306 4.8 14.5 0.00 0.00 0.00 50 1011.8
20260507205519 12 327 3.2 11.3 0.00 0.00 0.00 50 1011.9
20260507205020 12 314 4.8 12.9 0.00 0.00 0.00 50 1012.0
20260507204519 12 300 4.8 12.9 0.00 0.00 0.00 49 1012.1
20260507204019 12 254 6.4 11.3 0.00 0.00 0.00 49 1012.2
20260507203520 12 328 4.8 17.7 0.00 0.00 0.00 49 1012.2
20260507203021 12 334 4.8 11.3 0.00 0.00 0.00 48 1012.3
20260507202519 12 269 3.2 8.0 0.00 0.00 0.00 49 1012.3
20260507202039 12 250 4.8 11.3 0.00 0.00 0.00 49 1012.3
20260507201521 12 308 6.4 17.7 0.00 0.00 0.00 50 1012.3
20260507201021 12 303 6.4 12.9 0.00 0.00 0.00 49 1012.4
20260507200517 12 266 4.8 14.5 0.00 0.00 0.00 49 1012.4
20260507200037 12 289 4.8 14.5 0.00 0.00 0.00 49 1012.5
20260507195518 11 323 4.8 19.3 0.00 0.00 0.00 49 1012.5
20260507195017 11 242 4.8 12.9 0.00 0.00 0.00 49 1012.6
20260507194518 12 286 6.4 14.5 0.00 0.00 0.00 49 1012.7
20260507194017 12 298 6.4 12.9 0.00 0.00 0.00 49 1012.7
20260507193518 12 281 6.4 14.5 0.00 0.00 0.00 49 1012.8
20260507193020 12 307 4.8 11.3 0.00 0.00 0.00 50 1012.8
20260507192517 12 310 4.8 12.9 0.00 0.00 0.00 48 1012.9
20260507192021 12 343 4.8 12.9 0.00 0.00 0.00 49 1012.9
20260507191518 12 318 4.8 9.7 0.00 0.00 0.00 50 1013.0
20260507191018 12 322 4.8 12.9 0.00 0.00 0.00 49 1013.0
20260507190519 12 293 4.8 12.9 0.00 0.00 0.00 50 1013.1
20260507190018 12 352 3.2 9.7 0.00 0.00 0.00 50 1013.1
20260507185521 12 204 4.8 11.3 0.00 0.00 0.00 50 1013.2
20260507185038 11 298 4.8 11.3 0.00 0.00 0.00 50 1013.1
20260507184520 11 6 6.4 14.5 0.00 0.00 0.00 50 1013.1
20260507184039 12 264 4.8 16.1 0.00 0.00 0.00 49 1013.2
20260507183518 11 268 3.2 9.7 0.00 0.00 0.00 50 1013.2
20260507183020 11 292 4.8 16.1 0.00 0.00 0.00 50 1013.2
20260507182519 11 167 4.8 11.3 0.00 0.00 0.00 49 1013.2
20260507182019 11 306 4.8 12.9 0.00 0.00 0.00 51 1013.2
20260507181518 11 314 4.8 12.9 0.00 0.00 0.00 51 1013.1
20260507181041 11 258 4.8 12.9 0.00 0.00 0.00 50 1013.2
20260507180519 11 262 6.4 14.5 0.00 0.00 0.00 51 1013.1
20260507180019 11 305 8.0 17.7 0.00 0.00 0.00 51 1013.2
20260507175519 11 310 6.4 14.5 0.00 0.00 0.00 51 1013.2
20260507175021 11 343 6.4 11.3 0.00 0.00 0.00 51 1013.3
20260507174519 11 281 6.4 12.9 0.00 0.00 0.00 50 1013.3
20260507174019 10 299 6.4 17.7 0.00 0.00 0.00 52 1013.4
20260507173521 11 293 8.0 14.5 0.00 0.00 0.00 50 1013.4
20260507173019 11 306 6.4 17.7 0.00 0.00 0.00 50 1013.5
20260507172540 11 284 4.8 12.9 0.00 0.00 0.00 50 1013.6
20260507172019 11 317 4.8 16.1 0.00 0.00 0.00 50 1013.6
20260507171521 11 275 4.8 14.5 0.00 0.00 0.00 51 1013.8
20260507171020 11 312 6.4 16.1 0.00 0.00 0.00 50 1013.8
20260507170520 11 296 4.8 11.3 0.00 0.00 0.00 51 1013.9
20260507165521 11 242 6.4 16.1 0.00 0.00 0.00 51 1014.1
20260507165022 11 195 4.8 11.3 0.00 0.00 0.00 52 1014.1
20260507164520 11 281 6.4 14.5 0.00 0.00 0.00 53 1014.3
20260507164022 10 325 4.8 11.3 0.00 0.00 0.00 53 1014.4
20260507163520 11 244 6.4 19.3 0.00 0.00 0.00 51 1014.5
20260507163020 11 224 4.8 12.9 0.00 0.00 0.00 52 1014.4
20260507162521 11 220 4.8 17.7 0.00 0.00 0.00 52 1014.4
20260507162042 11 215 4.8 12.9 0.00 0.00 0.00 53 1014.5
20260507161520 10 285 6.4 19.3 0.00 0.00 0.00 53 1014.6
20260507161020 10 286 6.4 12.9 0.00 0.00 0.00 54 1014.6
20260507160540 10 296 6.4 14.5 0.00 0.00 0.00 54 1014.5
20260507155520 10 304 4.8 12.9 0.00 0.00 0.00 55 1014.5
20260507155018 10 322 4.8 16.1 0.00 0.00 0.00 55 1014.5
20260507154519 10 271 6.4 17.7 0.00 0.00 0.00 55 1014.5
20260507154018 10 239 4.8 14.5 0.00 0.00 0.00 55 1014.5
20260507153519 10 267 6.4 24.1 0.00 0.00 0.00 55 1014.5
20260507153018 10 245 4.8 12.9 0.00 0.00 0.00 55 1014.4
20260507152520 10 292 4.8 14.5 0.00 0.00 0.00 55 1014.4
20260507152018 10 287 6.4 12.9 0.00 0.00 0.00 54 1014.3
20260507151521 10 207 4.8 11.3 0.00 0.00 0.00 56 1014.3
20260507151021 10 272 4.8 12.9 0.00 0.00 0.00 56 1014.2
20260507150523 10 246 6.4 12.9 0.00 0.00 0.00 56 1014.2
20260507150022 10 228 4.8 16.1 0.00 0.00 0.00 56 1014.2
20260507145519 10 280 6.4 12.9 0.00 0.00 0.00 55 1014.2
20260507145020 10 165 4.8 14.5 0.00 0.00 0.00 56 1014.3
20260507144519 9 276 4.8 14.5 0.00 0.00 0.00 56 1014.3
20260507144020 9 201 4.8 9.7 0.00 0.00 0.00 56 1014.3
20260507143519 10 251 6.4 12.9 0.00 0.00 0.00 56 1014.4
20260507143019 10 233 4.8 9.7 0.00 0.00 0.00 56 1014.4
20260507142519 10 204 4.8 17.7 0.00 0.00 0.00 57 1014.5
20260507142021 9 234 3.2 12.9 0.00 0.00 0.00 58 1014.5
20260507141519 8 245 3.2 8.0 0.00 0.00 0.00 59 1014.5
20260507141019 8 261 4.8 9.7 0.00 0.00 0.00 61 1014.6
20260507140520 8 291 4.8 12.9 0.00 0.00 0.00 61 1014.6
20260507140021 8 315 6.4 17.7 0.00 0.00 0.00 61 1014.6
20260507135539 8 288 4.8 14.5 0.00 0.00 0.00 61 1014.6
20260507135020 8 286 4.8 12.9 0.00 0.00 0.00 61 1014.6
20260507134521 8 259 4.8 9.7 0.00 0.00 0.00 62 1014.5
20260507134019 8 293 3.2 9.7 0.00 0.00 0.00 64 1014.4
20260507133520 8 273 3.2 9.7 0.00 0.00 0.00 64 1014.4
20260507133100 7 269 3.2 8.0 0.00 0.00 0.00 65 1014.4
20260507132541 7 251 4.8 11.3 0.00 0.00 0.00 66 1014.4
20260507132020 7 218 4.8 9.7 0.00 0.00 0.00 67 1014.4
20260507131540 7 290 4.8 14.5 0.00 0.00 0.00 69 1014.3
20260507131020 7 253 3.2 11.3 0.00 0.00 0.00 69 1014.3
20260507130521 7 248 3.2 8.0 0.00 0.00 0.00 70 1014.2
20260507130020 7 223 3.2 11.3 0.00 0.00 0.00 71 1014.3
20260507125520 7 263 3.2 11.3 0.00 0.00 0.00 73 1014.2
20260507125022 7 214 3.2 8.0 0.00 0.00 0.00 73 1014.2
20260507124521 7 274 3.2 9.7 0.00 0.00 0.00 74 1014.2
20260507124021 7 252 3.2 9.7 0.00 0.00 0.00 74 1014.2
20260507123520 6 255 3.2 8.0 0.00 0.00 0.00 75 1014.2
20260507123022 6 285 3.2 8.0 0.00 0.00 0.00 76 1014.2
20260507122520 6 228 3.2 9.7 0.00 0.00 0.00 76 1014.1
20260507122101 6 294 4.8 16.1 0.00 0.00 0.00 78 1014.1
20260507121521 6 227 3.2 9.7 0.00 0.00 0.00 79 1014.1
20260507121022 6 243 3.2 11.3 0.00 0.00 0.00 79 1014.1
20260507120541 6 209 1.6 6.4 0.00 0.00 0.00 81 1014.1
20260507120019 5 247 3.2 6.4 0.00 0.00 0.00 81 1014.1
20260507115520 5 214 1.6 4.8 0.00 0.00 0.00 82 1014.1
20260507115020 5 253 1.6 8.0 0.00 0.00 0.00 82 1014.0
20260507114518 5 273 3.2 6.4 0.00 0.00 0.00 83 1013.9
20260507114018 5 222 1.6 3.2 0.00 0.00 0.00 84 1013.9
20260507113520 4 221 1.6 3.2 0.00 0.00 0.00 85 1013.8
20260507113018 3 244 1.6 4.8 0.00 0.00 0.00 87 1013.7
20260507112522 3 232 1.6 3.2 0.00 0.00 0.00 87 1013.7
20260507112021 2 229 1.6 3.2 0.00 0.00 0.00 89 1013.6
20260507111523 2 238 1.6 1.6 0.00 0.00 0.00 89 1013.6
20260507111038 2 205 1.6 3.2 0.00 0.00 0.00 89 1013.5
20260507110518 1 202 1.6 3.2 0.00 0.00 0.00 90 1013.4
20260507110042 1 256 0.0 1.6 0.00 0.00 0.00 89 1013.4
20260507105519 1 250 1.6 3.2 0.00 0.00 0.00 89 1013.3
20260507105020 1 213 1.6 3.2 0.00 0.00 0.00 89 1013.3
20260507104522 1 36 1.6 3.2 0.00 0.00 0.00 88 1013.3
20260507104021 1 295 0.0 3.2 0.00 0.00 0.00 88 1013.4
20260507103524 1 303 0.0 1.6 0.00 0.00 0.00 88 1013.3
20260507103019 1 289 0.0 1.6 0.00 0.00 0.00 88 1013.3
20260507102519 1 292 0.0 1.6 0.00 0.00 0.00 88 1013.3
20260507102019 1 252 0.0 1.6 0.00 0.00 0.00 88 1013.3
20260507101520 1 228 0.0 3.2 0.00 0.00 0.00 87 1013.3
20260507101020 1 223 0.0 3.2 0.00 0.00 0.00 87 1013.3
20260507100519 1 286 0.0 1.6 0.00 0.00 0.00 87 1013.3
20260507100039 1 230 1.6 1.6 0.00 0.00 0.00 86 1013.3
20260507095521 1 221 1.6 3.2 0.00 0.00 0.00 86 1013.2
20260507095020 1 220 0.0 1.6 0.00 0.00 0.00 86 1013.2
20260507094519 2 230 1.6 1.6 0.00 0.00 0.00 85 1013.2
20260507094020 2 195 0.0 3.2 0.00 0.00 0.00 85 1013.3
20260507093559 2 208 0.0 1.6 0.00 0.00 0.00 85 1013.2
20260507093040 2 225 0.0 3.2 0.00 0.00 0.00 84 1013.2
20260507092540 2 223 1.6 3.2 0.00 0.00 0.00 84 1013.2
20260507092022 2 211 1.6 1.6 0.00 0.00 0.00 83 1013.2
20260507091527 2 213 1.6 1.6 0.00 0.00 0.00 83 1013.3
20260507090520 3 207 1.6 3.2 0.00 0.00 0.00 83 1013.4
20260507085517 3 230 1.6 3.2 0.00 0.00 0.00 82 1013.4
20260507085018 3 253 1.6 3.2 0.00 0.00 0.00 81 1013.4
20260507084519 3 244 1.6 3.2 0.00 0.00 0.00 80 1013.4
20260507084018 3 257 1.6 3.2 0.00 0.00 0.00 80 1013.3
20260507083541 3 260 1.6 3.2 0.00 0.00 0.00 79 1013.4
20260507083021 3 264 1.6 3.2 0.00 0.00 0.00 78 1013.4
20260507082522 3 270 1.6 3.2 0.00 0.00 0.00 78 1013.4
20260507082021 3 279 1.6 3.2 0.00 0.00 0.00 77 1013.4
20260507081521 3 269 1.6 3.2 0.00 0.00 0.00 77 1013.4
20260507081021 3 269 1.6 3.2 0.00 0.00 0.00 76 1013.4
20260507080522 3 277 1.6 3.2 0.00 0.00 0.00 76 1013.5
20260507080018 4 262 1.6 3.2 0.00 0.00 0.00 75 1013.5
20260507075519 4 266 1.6 3.2 0.00 0.00 0.00 75 1013.5
20260507075021 4 256 1.6 3.2 0.00 0.00 0.00 75 1013.6
20260507074519 5 261 1.6 4.8 0.00 0.00 0.00 74 1013.6
20260507074019 5 236 1.6 3.2 0.00 0.00 0.00 74 1013.6
20260507073539 5 253 1.6 4.8 0.00 0.00 0.00 73 1013.5
20260507073021 5 247 1.6 4.8 0.00 0.00 0.00 73 1013.5
20260507072522 5 291 3.2 4.8 0.00 0.00 0.00 73 1013.5
20260507072022 5 274 1.6 6.4 0.00 0.00 0.00 72 1013.5
20260507071559 5 295 3.2 6.4 0.00 0.00 0.00 72 1013.5
20260507071021 5 305 1.6 8.0 0.00 0.00 0.00 73 1013.4
20260507070519 5 300 3.2 9.7 0.00 0.00 0.00 73 1013.4
20260507070019 5 289 1.6 6.4 0.00 0.00 0.00 73 1013.4
20260507065541 5 0.0 0.0 0.00 0.00 0.00 73 1013.4
20260507065019 5 306 3.2 9.7 0.00 0.00 0.00 74 1013.5
20260507064520 5 298 3.2 6.4 0.00 0.00 0.00 75 1013.6
20260507064041 5 300 3.2 6.4 0.00 0.00 0.00 76 1013.6
20260507063524 5 290 1.6 6.4 0.00 0.00 0.00 77 1013.6
20260507063042 5 266 1.6 3.2 0.00 0.00 0.00 78 1013.6
20260507062521 5 268 1.6 4.8 0.00 0.00 0.00 78 1013.5
20260507062021 5 287 1.6 4.8 0.00 0.00 0.00 79 1013.5
20260507061520 5 261 1.6 4.8 0.00 0.00 0.00 79 1013.5
20260507061020 5 0.0 0.0 0.00 0.00 0.00 80 1013.5
20260507060519 5 0.0 0.0 0.00 0.00 0.00 78 1013.5
20260507060020 5 275 1.6 3.2 0.00 0.00 0.00 79 1013.5
20260507055539 5 240 1.6 3.2 0.00 0.00 0.00 79 1013.5
20260507055019 5 284 0.0 1.6 0.00 0.00 0.00 78 1013.5
20260507054520 5 279 0.0 1.6 0.00 0.00 0.00 78 1013.5
20260507054019 5 263 0.0 1.6 0.00 0.00 0.00 78 1013.6
20260507053524 5 288 0.0 1.6 0.00 0.00 0.00 78 1013.5
20260507053023 5 275 1.6 1.6 0.00 0.00 0.00 77 1013.6
20260507052540 5 263 1.6 1.6 0.00 0.00 0.00 76 1013.6
20260507052020 5 265 0.0 1.6 0.00 0.00 0.00 76 1013.7
20260507051600 5 349 0.0 1.6 0.00 0.00 0.00 76 1013.7
20260507051022 5 310 1.6 1.6 0.00 0.00 0.00 76 1013.7
20260507050521 5 290 1.6 3.2 0.00 0.00 0.00 76 1013.7
20260507050018 5 279 1.6 1.6 0.00 0.00 0.00 76 1013.7
20260507045541 5 256 1.6 4.8 0.00 0.00 0.00 75 1013.7
20260507045023 5 266 1.6 3.2 0.00 0.00 0.00 74 1013.8
20260507044521 5 257 1.6 1.6 0.00 0.00 0.00 73 1013.7
20260507044020 5 277 1.6 3.2 0.00 0.00 0.00 73 1013.8
20260507043522 5 235 1.6 3.2 0.00 0.00 0.00 73 1013.8
20260507043025 5 253 1.6 3.2 0.00 0.00 0.00 72 1013.8
20260507042521 5 271 0.0 1.6 0.00 0.00 0.00 71 1013.8
20260507042018 5 275 0.0 1.6 0.00 0.00 0.00 71 1013.8
20260507041521 5 260 1.6 3.2 0.00 0.00 0.00 71 1013.8
20260507041038 5 245 1.6 3.2 0.00 0.00 0.00 70 1013.8
20260507040521 6 252 1.6 3.2 0.00 0.00 0.00 70 1013.9
20260507040021 6 335 1.6 3.2 0.00 0.00 0.00 70 1013.9
20260507035523 -17 277 0.0 0.0 0.00 0.00 0.00
20260507035021 6 251 0.0 3.2 0.00 0.00 0.00 68 1013.8
20260507034519 6 258 1.6 3.2 0.00 0.00 0.00 68 1013.8
20260507034020 6 238 1.6 1.6 0.00 0.00 0.00 68 1013.8
20260507033518 7 241 1.6 1.6 0.00 0.00 0.00 67 1013.8
20260507033018 7 207 0.0 1.6 0.00 0.00 0.00 67 1013.8
20260507032521 7 230 0.0 1.6 0.00 0.00 0.00 67 1013.8
20260507032023 7 207 0.0 1.6 0.00 0.00 0.00 67 1013.8
20260507031522 7 207 0.0 1.6 0.00 0.00 0.00 67 1013.8
20260507031019 7 185 0.0 1.6 0.00 0.00 0.00 67 1013.8
20260507030521 7 195 1.6 3.2 0.00 0.00 0.00 67 1013.9
20260507030019 7 193 1.6 3.2 0.00 0.00 0.00 66 1013.9
20260507025519 7 195 1.6 3.2 0.00 0.00 0.00 66 1013.9
20260507025019 7 192 1.6 3.2 0.00 0.00 0.00 65 1013.9
20260507024526 7 206 1.6 3.2 0.00 0.00 0.00 65 1013.9
20260507024026 7 210 1.6 3.2 0.00 0.00 0.00 65 1013.9
20260507023519 7 218 1.6 3.2 0.00 0.00 0.00 64 1013.8
20260507023021 7 246 1.6 3.2 0.00 0.00 0.00 64 1013.8
20260507022543 7 221 0.0 3.2 0.00 0.00 0.00 63 1013.8
20260507022022 8 223 0.0 3.2 0.00 0.00 0.00 62 1013.8
20260507021522 8 223 0.0 3.2 0.00 0.00 0.00 62 1013.7
20260507021021 8 258 1.6 3.2 0.00 0.00 0.00 61 1013.7
20260507020540 8 301 0.0 1.6 0.00 0.00 0.00 61 1013.6
20260507020020 8 257 1.6 3.2 0.00 0.00 0.00 61 1013.5
20260507015521 8 187 0.0 3.2 0.00 0.00 0.00 60 1013.5
20260507015020 8 257 1.6 3.2 0.00 0.00 0.00 60 1013.6
20260507014540 8 248 1.6 3.2 0.00 0.00 0.00 60 1013.5
20260507014020 8 277 1.6 3.2 0.00 0.00 0.00 60 1013.5
20260507013521 8 184 1.6 3.2 0.00 0.00 0.00 59 1013.5
20260507013020 8 170 1.6 3.2 0.00 0.00 0.00 59 1013.5
20260507012537 8 305 0.0 3.2 0.00 0.00 0.00 58 1013.5
20260507012039 8 298 0.0 3.2 0.00 0.00 0.00 58 1013.4
20260507011549 8 48 1.6 3.2 0.00 0.00 0.00 58 1013.4
20260507011030 8 196 0.0 1.6 0.00 0.00 0.00 57 1013.5
20260507010517 9 311 0.0 1.6 0.00 0.00 0.00 56 1013.5
20260507010019 9 284 1.6 3.2 0.00 0.00 0.00 56 1013.5
20260507005521 9 322 1.6 3.2 0.00 0.00 0.00 55 1013.4
20260507005021 9 350 1.6 3.2 0.00 0.00 0.00 55 1013.4
20260507004523 9 322 1.6 3.2 0.00 0.00 0.00 54 1013.4
20260507004021 10 333 1.6 4.8 0.00 0.00 0.00 54 1013.4
20260507003521 10 348 1.6 3.2 0.00 0.00 0.00 54 1013.3
20260507003021 10 311 1.6 4.8 0.00 0.00 0.00 54 1013.2
20260507002520 10 282 1.6 3.2 0.00 0.00 0.00 54 1013.2
20260507002040 10 268 1.6 6.4 0.00 0.00 0.00 53 1013.2
20260507001519 10 312 3.2 8.0 0.00 0.00 0.00 52 1013.0
20260507001040 10 318 3.2 8.0 0.00 0.00 0.00 52 1013.0
20260507000539 10 315 3.2 8.0 0.00 0.00 0.00 52 1013.0
20260507000019 10 217 3.2 9.7 0.00 0.00 0.00 52 1013.1
20260506235519 10 298 3.2 8.0 0.00 0.00 0.00 51 1013.0
20260506235024 10 267 3.2 11.3 0.00 0.00 0.00 52 1013.0
20260506234519 10 292 3.2 8.0 0.00 0.00 0.00 52 1013.0
20260506234019 10 262 3.2 6.4 0.00 0.00 0.00 52 1013.0
20260506233520 11 249 3.2 4.8 0.00 0.00 0.00 52 1013.1
20260506233016 11 321 1.6 3.2 0.00 0.00 0.00 51 1012.9
20260506232519 11 13 3.2 8.0 0.00 0.00 0.00 51 1013.0
20260506232019 11 284 3.2 6.4 0.00 0.00 0.00 50 1013.0
20260506231521 11 323 3.2 6.4 0.00 0.00 0.00 50 1013.0
20260506231019 11 300 3.2 8.0 0.00 0.00 0.00 50 1012.9
20260506230519 11 279 3.2 6.4 0.00 0.00 0.00 49 1012.9
20260506230021 12 328 3.2 11.3 0.00 0.00 0.00 48 1012.9
20260506225519 12 315 4.8 11.3 0.00 0.00 0.00 47 1013.0
20260506225039 12 294 3.2 6.4 0.00 0.00 0.00 46 1012.9
20260506224517 12 277 4.8 12.9 0.00 0.00 0.00 46 1012.9
20260506224018 12 273 3.2 9.7 0.00 0.00 0.00 48 1012.9
20260506223517 12 276 3.2 8.0 0.00 0.00 0.00 47 1012.9
20260506223017 12 286 4.8 12.9 0.00 0.00 0.00 47 1012.9
20260506222522 12 281 4.8 11.3 0.00 0.00 0.00 47 1012.9
20260506222040 12 320 3.2 8.0 0.00 0.00 0.00 47 1012.9
20260506221520 12 235 3.2 8.0 0.00 0.00 0.00 47 1012.9
20260506221020 12 276 3.2 9.7 0.00 0.00 0.00 46 1012.9
20260506220521 12 288 4.8 16.1 0.00 0.00 0.00 47 1012.8
20260506220020 12 212 3.2 9.7 0.00 0.00 0.00 47 1012.7
20260506215520 12 282 4.8 12.9 0.00 0.00 0.00 46 1012.7
20260506215020 12 352 3.2 17.7 0.00 0.00 0.00 47 1012.8
20260506214521 12 245 4.8 12.9 0.00 0.00 0.00 47 1012.8
20260506214100 12 285 6.4 19.3 0.00 0.00 0.00 48 1012.8
20260506213519 12 265 4.8 16.1 0.00 0.00 0.00 48 1012.8